Location: Puketoi
(40.5833°S, 176.0167°E)
Time: 15:12:38
(UTC+00:00)

PAYLOAD A - Pass Details

Date: 25 September 2023
Orbit: 691 x 830 km, 98.5° (Epoch: 10 December)

Event Time Altitude Azimuth Distance (km) Brightness Sun altitude
Exits shadow 15:45:30 18° 218° (SW) 1,938 5.9 -25.5°
Drops below altitude 10° 15:47:02 10° 209° (SSW) 2,463 6.6 -25.3°
Sets 15:49:36 0° 201° (SSW) 3,410 7.4 -24.8°
